User: anonymous   Login
Location: *
(51.1248°S, 108.4023°W)
Time: 22:12:21
(UTC+00:00)
Language:

MOS 1 Rocket - Orbit

View from above orbital plane
View from above orbital plane
View from above satellite
View from above satellite

Ground track
Ground track

The orbit data is extracted from the following two-line orbital elements,

1 17528U 87018B   21265.69198786  .00000068  00000-0  23786-4 0  9991
2 17528  97.4200  66.2414 0153169  92.5200 269.3542 14.51081843805259
Epoch (UTC): 22 September 2021 16:36:27
Eccentricity: 0.0153169
inclination: 97.4200°
perigee height: 613 km
apogee height: 831 km
right ascension of ascending node: 66.2414°
argument of perigee: 92.5200°
revolutions per day: 14.51081843
mean anomaly at epoch: 269.3542°
orbit number at epoch: 80525

The dashed part of the orbit path shows where the satellite is in the earth's shadow,  

DLR